Location: Lombard
(41.8800°N, 88.0080°W)
Time: 00:06:50
(UTC-05:00)

Tiros 1 - Pass Details

Date: 03 February 2023
Orbit: 628 x 662 km, 48.4° (Epoch: 20 March)

Event Time Altitude Azimuth Distance (km) Brightness Sun altitude
Rises 04:29:51 0° 295° (WNW) 2,929 - -28.7°
Reaches altitude 10° 04:32:14 10° 301° (WNW) 2,025 - -28.3°
Maximum altitude 04:36:47 50° 17° (NNE) 815 - -27.4°
Exits shadow 04:37:10 49° 35° (NE) 831 7.8 -27.3°
Drops below altitude 10° 04:41:22 10° 94° (E) 2,043 10.7 -26.6°
Sets 04:43:46 0° 99° (E) 2,958 11.8 -26.1°
